Regional Weather Roundup
Issued by NWS Portland, ME

Home | Current Version | Previous Version | Text Only | Print | Product List | Glossary On
Versions: 1 2 3 4 5 6 7 8 9 10 11 12 13 14 15 16 17 18 19 20 21 22 23 24 25 26 27 28 29 30 31 32 33 34 35 36 37 38 39 40 41 42 43 44 45 46 47 48 49 50
000
ASUS41 KGYX 281505
RWRGYX
WEATHER ROUNDUP FOR MAINE AND NEW HAMPSHIRE
NATIONAL WEATHER SERVICE GRAY ME
1100 AM EDT THU AUG 28 2014

MEZ002-005-006-010-012-015-018-020-021-024-026-027-029-281600-
MAINE

CITY           SKY/WX    TMP DP  RH WIND       PRES   REMARKS
PORTLAND       MOSUNNY   74  57  55 N15G22    29.81F
SANFORD        PTSUNNY   73  55  53 NW5       29.83F
BAR HARBOR     SUNNY     73  57  56 NW12G20   29.76S
WISCASSET      MOSUNNY   74  56  53 VRB7      29.81F
ROCKLAND       SUNNY     73  55  53 NW10G16   29.77S
FRYEBURG       PTSUNNY   74  55  51 VRB3      29.83F
LEWISTONAUBURN MOSUNNY   72  55  56 N14G21    29.82F
AUGUSTA        MOSUNNY   72  54  53 NW14G20   29.81F
WATERVILLE     PTSUNNY   72  55  56 W7        29.77F
BANGOR         MOSUNNY   73  53  49 NW18G24   29.78F
GREENVILLE       N/A     65  53  65 NW10G17   29.81F
MILLINOCKET    SUNNY     72  52  49 NW9G20    29.79F
HOULTON        MOSUNNY   68  54  60 NW8       29.75F
PRESQUE ISLE   CLOUDY    66  54  63 NW12      29.76F
FRENCHVILLE    CLOUDY    61  55  81 NW9       29.78S
CARIBOU        PTSUNNY  N/A N/A N/A NW8       29.76F
$$

NHZ002-005-008-009-011-012-014-281600-
NEW HAMPSHIRE

CITY           SKY/WX    TMP DP  RH WIND       PRES   REMARKS
PORTSMOUTH     MOSUNNY   76  56  48 NW13      29.80F
ROCHESTER      MOSUNNY   75  56  51 NW12      29.82F
NASHUA         MOSUNNY   75  55  49 N12       29.85F
MANCHESTER     MOSUNNY   75  55  49 N13       29.83F
CONCORD        MOSUNNY   73  54  51 NW13G22   29.85F
LACONIA        MOSUNNY   72  54  53 NW12      29.84F
PLYMOUTH       FAIR      71  58  64 NW10G17   29.86S
BERLIN         PTSUNNY   65  51  60 NW8       29.87F
WHITEFIELD     PTSUNNY   66  53  63 NW7       29.88F
JAFFREY        PTSUNNY   70  53  54 NW8       29.89S
LEBANON        MOSUNNY   72  53  51 NW12      29.88S
MT WASHINGTON  FOG       41  41 100 NW46G54     N/A  VSB 0
$$

VTZ005-007-008-281600-
VERMONT

CITY           SKY/WX    TMP DP  RH WIND       PRES   REMARKS
ST JOHNSBURY     N/A     67  52  58 MISG      29.87F
MONTPELIER     PTSUNNY   65  53  65 NW12      29.95S
BURLINGTON     MOSUNNY   69  52  54 NW16G23   29.93R
$$

MAZ007-012-024-CTZ003-RIZ002-NYZ038-NYZ072-281600-
SOUTHERN NEW ENGLAND AND NY

CITY           SKY/WX    TMP DP  RH WIND       PRES   REMARKS
BOSTON         MOSUNNY   78  54  43 N13       29.81F
WORCESTER      PTSUNNY   72  55  55 N8G18     29.87F
NANTUCKET      SUNNY     75  63  66 N22G31    29.77S
PROVIDENCE     MOSUNNY   78  53  41 N17G26    29.83F
HARTFORD       MOSUNNY   76  57  51 NW13G20   29.86F
ALBANY         PTSUNNY   71  58  63 NW12G17   29.92S
NEW YORK CITY  MOSUNNY   74  56  53 NW13      29.90S
$$

ANZ081-ANZ082-ANZ150-NHZ014-MEZ023>029-281600-
COASTAL MARINE OBSERVATIONS

STATION/POSITION TIME  TEMP    WIND        PRES    WAVE
                       AIR SEA DIR/SP/G            HT/PER
                 (UTC) (F)     (DEG/KT/KT) (MB)    (FT/S)
MATINICUS ROCK   1400          340/ 13/ 15 1008.1F
PORTLAND WX BUOY 1450   66 63  360/  8/ 10 1009.2F   3/14
WELLS            1400   72 60   10/  9/ 12 1009.0F
ISLE OF SHOALS   1400   69     350/  6/  6 1009.4S
JEFFREYS LEDGE   1421      66                N/A     4/14
CASHES LEDGE BUO 1450   67 67              1007.8F   5/14
$$

.............KEY..............
   WCI - WIND CHILL
   TC  - TEMPERATURE IN CELSIUS
   VSB - VISIBILITY IN MILES
   HX  - HEAT INDEX
   FAIR- INDICATES FEW OR NO CLOUDS BELOW 12,000 FT, WITH NO
         SIGNIFICANT WEATHER AND/OR OBSTRUCTIONS TO VISIBILITY.





USA.gov is the U.S. government's official web portal to all federal, state and local government web resources and services.